Wind_Speed
16 15 11 6 7 10 11 13 15 15 15 15 15 15 12 9 8 5 2 6 12 7 1 6 8 8 10 12 12 12 12 13 13 13 14 14 13 13 13 13 13 14 13 13 15 17 17 17 16 15 15 14 14 13 12 12 13 12 11 10 8 7 7 7 6 5 4 4 5 6 6 8 9 10 10 11 11 10 10 11 11 11 12 12 13 13 13
15 16 13 10 10 10 10 13 14 13 13 15 16 15 13 12 9 3 2 8 9 2 4 6 8 8 9 11 11 12 13 14 14 14 14 14 13 14 15 14 14 13 14 14 16 18 18 18 18 17 15 14 13 13 12 13 13 13 11 10 9 8 7 6 6 5 5 5 6 7 7 8 9 9 9 9 10 10 11 12 12 13 13 14 14 14 13
11 14 12 11 12 11 10 11 13 14 13 14 13 12 12 12 8 5 7 11 6 3 6 7 8 8 9 11 12 12 13 14 14 14 14 14 14 14 14 14 14 13 14 14 16 18 19 19 19 18 16 15 14 14 13 13 14 13 12 11 9 8 7 6 6 5 5 6 7 8 8 9 9 9 9 10 10 11 12 13 13 14 14 14 14 14 13
9 11 12 12 12 11 11 11 12 14 13 12 11 10 10 10 5 2 7 8 2 5 6 7 8 9 11 12 13 12 12 13 14 14 14 14 14 14 14 14 14 14 14 15 16 19 20 20 20 18 16 15 14 14 14 14 14 13 12 11 10 8 7 6 6 6 6 7 8 9 9 9 9 9 9 10 11 12 13 13 13 13 14 14 14 13 13
7 10 11 11 10 10 10 9 11 15 14 12 11 8 8 10 7 4 7 3 4 7 7 8 9 10 12 12 12 11 11 13 13 13 14 14 14 14 13 13 13 14 14 15 17 19 20 20 20 19 17 17 16 15 15 14 14 13 12 12 10 7 7 7 6 6 7 8 8 9 9 9 9 9 10 11 11 12 13 13 13 13 14 14 14 14 15
6 9 10 9 9 9 5 2 5 10 12 12 12 9 10 11 9 5 3 3 6 7 7 7 9 10 10 11 11 11 10 11 11 12 12 13 12 12 11 11 12 12 12 14 16 17 18 19 19 18 17 16 15 14 14 13 13 13 12 11 9 7 7 7 6 7 7 8 8 8 8 9 9 10 11 12 12 12 12 13 13 14 14 14 14 14 16
4 6 9 10 9 6 3 3 3 3 4 7 9 9 10 11 8 5 4 6 7 6 4 4 6 7 8 8 10 11 10 9 9 9 9 9 9 9 9 10 10 10 11 13 14 15 16 16 17 16 16 15 14 14 13 13 13 12 12 11 8 6 6 6 6 7 7 7 8 8 8 9 9 10 11 12 12 12 12 12 13 13 14 14 14 15 16
4 5 9 8 5 5 6 5 5 4 3 6 8 7 7 7 5 4 4 6 7 7 6 5 5 6 7 7 7 8 9 8 7 8 7 6 6 6 7 8 8 9 11 12 12 13 14 14 15 15 15 15 14 13 13 12 11 11 10 8 6 5 4 5 6 5 6 7 8 8 8 9 10 11 11 12 12 12 12 12 13 13 14 15 16 17 17
5 7 8 5 3 6 7 5 6 6 6 7 7 6 4 2 3 4 2 5 6 7 7 6 6 6 6 6 5 6 7 6 6 6 5 6 5 5 4 5 7 8 9 10 11 12 13 14 14 14 14 14 13 13 12 10 10 9 8 6 4 3 4 4 4 4 5 7 8 8 9 9 11 11 11 12 12 11 12 13 14 15 15 15 16 16 17
5 6 7 6 6 7 6 5 7 5 3 4 6 6 4 3 5 8 5 6 7 7 7 7 7 6 6 6 5 6 7 6 6 6 6 6 6 6 6 6 8 9 9 10 11 12 13 13 12 13 13 13 13 12 11 9 8 7 5 4 3 3 3 3 3 4 6 6 7 8 9 11 11 12 12 12 12 12 14 15 16 16 16 16 16 17 17
6 7 7 7 7 4 1 5 9 6 3 5 7 7 5 7 9 9 7 7 7 7 7 7 7 6 6 4 3 5 7 7 7 7 7 7 8 8 8 8 9 10 10 11 11 11 12 12 12 13 14 14 13 11 9 8 7 6 4 3 2 2 2 2 3 5 6 6 7 9 10 11 11 12 12 13 13 14 15 16 16 16 16 17 18 18 19
7 8 7 5 3 1 1 4 9 6 3 5 8 6 3 5 7 6 5 7 7 7 7 7 6 5 5 4 4 4 8 9 8 8 9 9 10 10 10 10 11 11 11 11 11 11 12 12 13 15 15 14 11 9 8 7 6 4 3 2 1 1 1 3 4 5 6 7 8 10 11 11 12 12 13 14 15 15 16 17 17 17 18 19 20 21 20
8 8 7 3 3 3 2 4 5 4 3 5 6 4 1 2 3 3 3 5 7 6 6 5 3 2 4 7 8 8 10 11 10 10 12 12 12 12 12 12 13 12 12 12 12 13 13 13 14 14 13 11 9 8 7 6 5 4 3 2 1 1 2 3 5 5 6 8 9 10 10 11 12 13 14 15 16 17 18 18 19 19 19 20 21 21 20
7 6 6 4 2 2 3 4 3 2 4 4 3 2 0 1 3 5 3 4 6 6 5 4 5 8 9 9 10 10 11 12 12 11 13 13 13 14 14 13 13 13 14 14 15 15 14 14 13 11 10 10 9 8 6 5 3 3 2 1 0 2 3 4 5 6 7 8 9 9 10 11 13 14 15 15 17 17 18 18 19 20 20 20 20 20 19
5 6 7 5 2 3 6 7 4 1 2 1 3 3 2 0 4 5 4 4 6 6 7 8 9 11 11 10 11 12 12 12 12 12 12 13 14 14 14 14 14 15 16 16 16 15 13 12 10 9 10 10 8 6 5 3 2 2 1 0 1 2 3 4 6 7 7 8 9 10 11 12 14 14 15 15 17 17 18 19 19 20 20 19 19 19 18
4 7 6 3 1 4 6 5 2 2 3 2 1 1 3 3 3 4 4 5 6 7 10 11 11 12 12 11 11 12 12 12 12 12 12 13 14 15 15 15 15 15 16 15 15 14 12 11 10 10 9 9 7 6 5 4 2 1 0 0 2 3 4 5 6 7 7 9 10 12 12 12 13 14 14 15 17 17 18 19 19 20 20 19 19 18 17
1 0 3 4 3 5 4 2 3 4 4 3 1 1 3 4 3 3 4 6 7 9 12 12 11 11 11 11 11 12 12 12 12 12 13 14 15 16 16 16 15 15 15 15 15 14 12 11 10 9 8 7 6 5 4 3 2 1 0 1 3 4 6 6 7 7 8 10 12 12 12 12 13 14 14 15 15 16 17 18 18 19 19 18 19 19 18
3 4 5 4 4 5 4 3 4 4 3 3 3 2 3 4 4 4 6 8 9 11 12 12 11 11 12 13 12 12 12 13 13 13 14 15 15 16 16 15 14 14 14 14 14 13 11 10 9 8 7 6 6 5 3 2 2 1 1 2 3 5 6 7 7 8 10 12 12 12 11 11 13 14 14 14 14 15 16 16 17 17 18 17 18 18 19
2 2 4 4 5 5 4 4 4 4 4 3 3 3 4 6 6 7 8 10 10 10 11 12 12 13 13 14 13 12 12 13 13 13 13 14 14 14 14 13 12 11 11 12 12 11 10 8 7 7 6 6 5 4 2 1 1 1 1 3 5 5 6 7 8 9 11 12 12 12 12 13 14 15 14 14 14 14 15 16 16 16 16 17 17 17 18
2 4 5 5 6 5 3 3 4 4 5 4 4 5 7 8 9 10 10 10 10 10 11 13 14 14 14 14 13 12 11 11 11 11 12 13 13 13 12 11 10 10 10 10 10 9 8 7 6 6 6 5 4 3 2 2 1 2 3 4 6 6 6 7 8 9 11 11 11 12 13 14 15 15 15 15 16 15 15 16 16 16 17 18 18 18 19
3 6 5 5 6 6 4 4 4 5 5 6 7 8 9 11 11 11 10 9 10 11 12 13 14 14 14 13 13 13 11 10 10 11 12 13 13 12 11 10 10 9 9 9 9 9 8 7 6 6 5 4 4 3 3 2 2 3 3 4 6 7 7 7 9 11 12 11 11 13 15 15 15 15 15 16 16 17 17 16 16 17 19 19 19 20 20
2 4 5 4 3 4 5 6 7 7 7 8 9 10 11 12 12 12 12 11 11 12 13 13 13 14 13 13 14 13 11 10 11 12 13 12 12 11 10 10 10 10 9 9 9 8 7 7 6 5 5 4 3 3 2 2 2 3 4 5 6 7 8 9 10 12 12 12 12 14 15 16 17 17 17 17 17 17 17 17 16 17 18 19 20 20 21
2 4 4 2 1 4 7 7 7 7 7 8 10 10 11 11 11 11 13 13 12 12 12 13 14 14 13 14 14 13 11 12 12 13 12 12 11 10 10 9 10 10 9 8 8 7 7 6 5 4 4 3 3 2 2 2 3 3 4 5 6 8 9 10 11 11 11 12 13 15 16 16 17 18 18 19 19 17 16 16 17 18 18 18 19 19 21
3 4 3 2 2 5 7 7 7 7 6 7 10 11 11 11 11 11 12 13 13 12 12 13 16 16 14 14 14 13 13 13 13 12 12 11 10 9 9 9 9 9 8 7 6 6 6 5 4 3 3 3 2 1 1 2 3 3 4 4 6 8 10 11 10 10 12 13 14 15 16 16 16 17 18 19 20 19 18 17 18 19 19 19 19 18 18
4 5 4 2 4 6 7 7 7 6 5 7 9 10 11 11 11 12 12 11 12 13 12 13 15 16 15 15 15 14 13 13 13 12 11 10 9 9 9 9 9 8 7 6 6 6 5 4 3 3 2 3 2 1 2 3 4 4 3 4 6 8 10 11 10 11 12 13 13 14 16 16 16 16 17 18 18 20 21 21 20 20 19 19 19 18 17
6 4 1 2 4 6 5 5 7 7 6 8 9 10 10 11 11 12 13 12 12 14 14 13 14 15 15 15 15 14 14 13 12 11 10 9 9 8 8 9 8 7 7 6 6 5 4 3 2 2 2 2 1 1 2 3 4 4 4 6 8 8 8 9 10 12 12 12 13 14 15 15 16 16 17 18 18 19 21 22 22 22 22 21 18 17 18
6 3 2 3 5 6 4 3 6 9 8 9 10 11 11 12 12 13 14 13 13 15 15 15 15 14 14 14 14 14 14 13 11 9 9 9 8 8 8 8 8 7 7 7 6 5 4 2 2 2 1 1 1 2 3 3 4 4 5 8 9 8 7 7 10 12 12 11 13 14 14 15 15 15 16 17 18 18 19 20 22 23 23 22 20 19 20
7 4 3 2 3 6 5 5 7 10 9 9 11 12 12 13 14 13 13 13 13 13 14 14 15 14 12 13 13 13 12 12 10 8 8 8 7 7 8 8 7 7 6 6 6 5 3 2 2 1 1 0 1 2 3 4 4 6 8 9 10 9 7 8 10 12 11 11 12 12 13 14 15 14 14 16 17 17 17 18 20 21 22 22 22 21 21
7 6 6 4 2 6 7 7 8 9 9 10 11 12 13 14 14 13 13 13 12 12 12 12 13 13 12 12 12 12 11 10 9 8 8 8 7 7 7 7 6 6 6 6 5 4 3 3 2 1 1 1 1 2 3 4 6 8 9 9 9 8 8 9 11 12 11 11 10 11 12 13 14 14 14 15 16 16 16 18 20 21 21 22 22 23 23
6 7 6 2 2 6 8 8 8 9 10 10 11 11 13 14 13 12 12 12 11 11 11 12 12 12 12 12 12 11 10 9 9 9 8 8 8 7 7 6 6 6 6 5 4 4 3 3 2 1 1 1 1 2 4 5 7 8 8 7 7 7 7 10 12 11 11 10 10 11 12 12 13 13 14 14 15 15 17 19 20 20 21 21 22 23 24
9 9 5 2 4 5 6 7 7 8 9 10 11 12 13 13 13 12 11 11 10 10 11 12 11 11 11 11 11 10 10 10 9 9 9 8 8 7 7 6 5 4 4 4 4 3 3 2 2 1 0 1 2 3 5 6 8 8 6 6 6 6 7 9 11 11 10 11 11 11 12 12 13 13 13 14 15 15 17 19 20 20 20 21 22 23 23
11 9 6 5 5 5 5 6 6 8 9 10 12 12 11 11 12 12 11 10 10 10 11 11 11 11 11 11 11 11 10 10 9 9 9 8 8 7 6 5 4 4 3 3 3 3 2 1 1 1 0 1 3 4 5 6 6 6 6 6 7 7 7 9 11 10 10 10 10 11 12 12 13 13 13 14 15 15 17 19 20 19 20 21 21 21 22
10 7 5 5 5 4 5 6 6 7 9 11 10 9 9 9 10 10 10 10 10 10 10 10 10 11 12 12 11 11 10 10 9 9 9 8 8 7 6 5 4 4 3 3 3 2 2 1 1 1 0 2 3 4 5 5 5 5 5 6 7 8 8 9 10 10 10 9 9 10 11 11 12 12 13 14 14 14 16 18 18 19 20 20 19 20 22
5 3 4 5 5 4 5 6 6 6 7 9 9 8 8 8 9 9 10 10 10 10 10 10 11 12 12 12 12 12 11 9 7 7 8 9 8 8 6 5 4 4 3 3 2 2 1 1 1 0 1 2 3 4 4 5 4 4 5 6 7 8 9 9 9 9 9 9 9 10 10 10 11 12 13 13 14 14 15 16 17 17 19 19 19 20 23
2 3 3 4 3 3 3 4 6 6 7 8 9 8 8 10 11 10 11 11 11 10 10 11 11 12 13 13 12 12 10 8 6 7 8 9 8 8 7 6 5 4 3 3 2 2 2 2 0 1 1 2 3 4 4 4 3 4 5 6 7 8 8 8 8 8 8 9 9 9 9 10 11 11 12 13 13 14 14 15 16 17 18 18 19 20 23
2 2 3 3 3 3 2 2 3 5 6 7 8 9 10 12 13 12 12 12 11 11 11 11 12 12 13 13 12 11 10 8 6 7 8 8 8 8 7 6 5 4 4 4 3 2 2 2 1 1 1 2 3 3 3 3 3 4 5 6 6 7 8 8 8 7 7 8 8 9 10 11 11 11 12 12 13 13 14 15 16 17 18 18 19 20 22
4 2 2 3 2 3 3 3 2 4 6 8 9 11 12 14 15 15 14 13 12 11 11 12 13 13 13 13 12 10 9 7 7 7 8 8 8 8 7 6 6 5 4 3 3 3 3 3 3 2 2 2 2 2 2 3 4 4 5 5 6 7 8 8 8 7 7 7 8 9 10 11 11 11 12 12 12 13 14 15 16 18 18 19 19 20 21
5 3 2 3 4 4 5 4 4 6 8 9 11 12 14 15 15 15 13 12 11 11 11 12 12 13 13 12 11 9 8 8 7 8 8 8 8 8 7 6 5 4 3 3 4 4 4 5 4 3 2 2 2 2 2 3 4 5 5 5 6 7 7 8 8 7 7 8 8 9 10 11 11 12 12 12 13 13 14 15 16 17 18 19 19 20 21
6 4 4 5 5 5 6 6 5 6 8 10 11 12 12 13 14 13 11 10 10 11 11 12 12 12 13 12 10 9 8 8 8 8 8 9 8 7 6 5 4 2 3 4 4 4 6 6 4 3 3 2 2 2 2 4 5 5 5 5 6 6 7 7 8 7 7 8 8 9 10 10 11 12 12 13 13 13 14 15 16 16 17 19 19 19 21
6 6 6 6 6 6 6 6 6 6 8 9 11 11 12 12 13 12 11 11 11 11 12 13 13 12 12 11 10 9 8 8 8 8 8 8 8 7 6 5 5 4 5 5 5 5 7 6 4 3 3 2 2 2 2 5 6 5 5 5 6 6 6 7 8 8 8 8 9 9 10 10 11 12 12 13 13 13 14 15 15 15 16 18 18 19 22
6 7 7 7 6 7 7 7 7 8 8 9 10 11 12 12 11 11 10 11 11 11 12 12 12 11 11 11 9 9 9 9 8 8 7 8 8 8 7 5 6 6 6 6 6 6 8 6 4 2 2 1 1 2 3 5 6 5 5 5 6 6 7 7 7 8 8 9 9 9 10 10 11 11 12 12 13 13 14 15 15 15 16 17 17 19 22
7 8 8 7 7 8 8 9 9 9 9 9 10 11 11 10 10 10 11 12 12 12 11 11 11 11 11 10 9 8 8 8 7 7 7 7 7 7 5 5 6 7 8 8 7 7 7 7 5 3 2 1 1 3 5 6 6 6 6 6 6 6 6 7 7 7 8 8 9 9 10 10 10 11 12 12 13 13 14 15 15 15 15 16 17 18 22
8 8 7 7 7 9 9 9 10 10 9 10 10 11 10 10 10 11 12 13 13 13 13 12 12 11 10 9 8 8 7 7 7 7 7 6 6 6 5 4 5 7 8 9 8 7 7 6 5 4 2 1 2 4 5 5 6 7 7 6 6 6 6 6 7 7 8 8 9 9 9 10 10 10 11 12 12 13 13 15 15 15 16 17 16 17 23
8 8 7 7 9 9 10 10 10 10 10 10 10 10 10 10 11 12 13 13 13 13 13 13 12 10 9 8 8 7 6 6 7 7 7 7 7 7 6 5 5 6 8 8 7 6 6 6 5 4 4 2 3 4 5 6 7 7 7 6 6 6 6 6 6 7 7 8 8 9 9 10 10 10 10 11 12 12 13 14 15 15 16 17 16 17 23
8 8 8 9 10 10 10 10 10 10 11 11 11 10 10 11 12 13 14 14 14 13 12 11 10 9 9 8 6 5 5 6 6 6 6 6 5 6 7 7 6 7 8 8 7 6 5 6 6 6 5 4 4 5 5 6 6 7 6 7 7 6 6 6 6 6 6 7 8 8 9 9 9 9 10 11 11 11 12 14 14 15 16 17 17 18 22
8 9 10 10 10 10 10 10 11 13 14 14 12 10 10 12 13 13 14 14 13 12 11 10 9 8 8 7 6 6 6 6 6 5 5 3 2 4 6 7 6 7 8 8 7 6 6 6 7 7 5 4 5 5 5 5 6 6 6 7 7 6 6 6 6 6 6 6 7 8 8 8 8 9 9 10 10 11 12 13 13 14 15 16 16 18 21
8 9 10 10 10 10 10 11 13 14 14 12 10 10 11 13 13 13 13 13 12 11 10 9 8 8 7 7 7 6 6 6 6 6 6 4 4 5 6 6 6 7 8 7 6 5 5 6 7 6 5 4 5 5 5 5 5 5 6 6 6 6 6 6 6 5 6 6 6 6 7 7 8 8 9 9 9 10 11 12 12 13 14 15 16 17 20
8 9 10 10 10 11 11 12 13 12 11 10 11 12 13 13 13 13 12 11 10 9 8 7 7 7 7 7 7 6 5 4 5 5 6 6 6 6 6 6 6 7 8 7 5 5 6 6 6 6 4 4 5 5 5 5 4 4 5 5 5 5 5 5 6 6 5 5 6 6 6 7 8 8 8 9 9 10 11 11 11 12 14 15 16 17 18
9 9 10 10 10 12 12 12 10 9 10 12 13 13 13 13 13 12 11 10 9 8 8 8 7 7 7 7 7 7 6 5 4 3 4 5 5 5 5 6 7 8 7 6 5 5 6 6 6 5 5 4 5 5 5 4 3 2 3 5 5 4 5 5 5 5 5 5 5 5 6 6 7 7 8 8 8 9 10 10 10 12 14 14 14 16 18
10 9 9 9 10 12 12 11 9 10 12 13 13 13 13 13 11 10 9 9 9 8 7 8 8 8 8 8 7 7 7 7 6 5 4 5 5 5 5 6 7 8 7 5 4 5 5 5 5 5 4 4 4 4 4 4 3 2 2 3 4 4 4 4 4 3 4 5 5 5 5 6 6 6 7 7 8 8 10 10 10 11 13 13 13 15 16
9 9 9 10 10 11 10 10 11 12 13 14 14 14 12 11 10 10 9 9 8 7 7 7 7 7 8 8 7 7 7 8 8 7 6 5 5 5 6 6 7 8 8 6 4 4 4 4 3 4 4 4 4 4 4 4 3 2 2 2 3 3 4 4 4 3 4 4 4 4 4 5 6 6 6 6 7 8 9 10 10 11 12 12 12 14 15
10 9 10 10 11 11 10 11 12 13 13 13 14 13 11 9 9 10 9 8 8 8 7 7 7 7 7 8 8 8 7 8 8 8 7 7 6 6 6 7 8 8 8 7 5 4 4 3 3 3 4 4 4 4 3 3 3 3 2 1 2 2 3 3 4 4 4 3 3 4 4 4 5 5 5 5 6 7 8 9 9 10 11 11 12 13 14
Wind_Direction
232 240 235 213 226 239 235 232 227 220 219 222 226 231 228 222 233 249 269 244 242 244 148 133 151 157 154 155 157 155 155 158 159 161 165 169 172 174 179 185 186 186 186 186 188 190 191 191 190 192 196 196 196 198 199 196 194 195 198 201 206 211 220 232 245 255 257 258 262 265 270 278 283 285 284 283 283 282 279 280 283 283 284 286 286 286 288
226 231 230 221 228 242 244 241 239 232 225 224 226 228 222 218 224 229 274 257 244 206 85 110 125 135 143 144 147 151 155 158 160 164 169 173 176 181 187 189 190 192 190 188 189 190 191 192 190 191 195 193 191 192 193 193 194 197 201 205 209 214 221 235 249 254 255 260 270 278 283 289 293 293 291 290 289 286 283 284 286 284 284 284 283 281 283
224 222 223 222 228 240 240 235 236 234 227 219 216 215 210 212 218 202 217 235 228 107 90 106 115 124 134 140 148 153 157 159 162 167 172 176 181 186 191 191 190 193 192 189 189 190 193 194 192 192 194 193 190 188 190 192 194 198 204 208 214 220 224 238 249 252 260 272 282 289 293 297 298 297 295 295 294 291 288 289 289 287 285 284 281 279 280
219 207 214 216 219 234 237 231 229 224 216 207 201 200 202 203 205 236 247 248 189 121 123 123 131 144 149 153 155 155 159 162 165 171 175 179 185 188 191 191 189 191 191 190 191 193 194 193 192 192 191 190 189 187 189 192 194 199 206 210 219 226 229 240 249 256 272 287 294 297 300 301 300 300 299 299 298 297 295 295 293 289 287 284 282 282 284
203 184 203 212 210 222 227 221 218 213 208 201 194 195 198 189 177 209 252 267 102 130 145 142 151 160 161 162 162 161 164 165 169 177 179 182 188 188 188 188 188 189 191 192 193 193 193 192 191 190 188 187 187 187 187 189 193 200 206 211 222 232 234 242 253 266 282 294 298 300 301 299 301 303 301 300 302 301 299 298 294 290 288 286 284 285 288
193 171 188 205 209 213 208 174 202 209 207 198 189 195 205 192 176 176 191 117 113 140 156 157 163 165 163 164 165 164 165 166 173 183 185 187 189 187 186 187 187 189 190 191 191 191 192 192 188 187 188 187 187 186 183 185 193 201 207 213 224 234 235 242 260 277 290 298 302 302 300 299 301 303 303 303 304 303 300 297 294 291 290 289 287 288 289
195 164 183 203 208 198 131 100 147 183 218 205 188 195 207 196 182 165 129 118 129 136 124 124 141 144 144 150 157 161 166 169 173 179 185 189 187 183 185 188 189 189 187 187 186 187 189 188 183 181 183 183 181 180 179 184 193 201 208 214 221 228 235 250 272 286 296 303 305 302 300 300 302 303 304 305 304 304 302 298 295 293 291 290 289 289 289
183 180 197 204 187 127 112 132 157 152 190 206 190 191 200 190 190 191 137 116 126 127 109 106 116 122 127 129 135 148 158 164 170 178 182 181 180 182 182 185 187 185 184 185 182 179 180 180 177 175 176 177 176 174 176 182 191 197 204 211 213 219 241 265 281 292 304 308 305 303 303 303 305 307 308 308 306 306 302 298 296 293 290 291 290 289 288
202 199 197 186 150 153 156 160 167 172 190 198 191 192 187 176 267 257 175 130 137 134 121 120 123 132 147 151 138 131 136 144 156 162 154 146 155 165 163 168 173 173 176 177 171 168 171 174 173 171 170 171 168 166 169 176 183 190 197 202 204 222 256 279 292 303 312 309 304 306 310 310 312 313 312 309 306 304 300 298 296 293 291 290 288 287 286
224 207 195 192 197 196 180 146 146 164 190 175 180 199 191 173 240 247 212 158 149 142 133 132 133 145 176 182 157 131 128 135 141 138 128 129 140 144 139 143 150 156 161 161 157 161 166 167 165 160 158 158 156 157 162 169 176 186 191 193 204 241 270 287 305 312 313 309 308 312 315 315 315 314 310 306 303 299 298 297 293 291 290 288 286 286 284
224 210 199 201 205 211 177 127 140 156 184 164 175 207 205 175 193 215 200 159 153 153 147 145 151 174 201 194 137 122 133 136 137 136 131 127 125 125 130 137 142 145 147 146 149 156 158 157 155 151 148 148 150 152 158 167 175 181 180 181 205 249 280 302 314 315 313 311 314 316 316 314 311 308 304 302 299 296 296 295 293 292 293 292 292 291 289
231 224 210 198 178 120 50 137 141 152 185 195 202 213 191 149 164 185 180 159 156 154 152 158 175 201 203 161 125 135 136 127 122 124 122 119 120 122 126 129 130 132 136 139 143 145 145 146 147 145 143 144 148 149 154 164 171 172 168 166 181 235 306 317 313 312 313 314 316 315 311 308 305 301 299 297 296 297 298 298 297 297 297 297 296 294 293
222 225 221 201 121 104 161 156 138 140 170 205 217 210 71 62 104 119 142 148 146 151 161 171 169 100 98 119 133 140 127 116 113 112 111 113 117 118 118 120 123 126 128 130 130 128 130 135 139 142 144 144 144 144 149 156 157 151 151 151 152 300 317 314 310 312 316 317 316 310 305 303 300 298 298 298 299 301 301 300 299 298 298 298 297 295 294
217 220 225 215 147 130 177 155 127 160 195 192 175 127 21 323 88 98 106 120 132 144 141 117 103 100 104 116 126 124 115 110 110 110 111 114 112 110 112 116 119 121 120 118 119 119 124 128 133 139 140 135 135 141 148 155 153 143 143 140 72 313 308 308 311 317 319 317 313 306 302 302 300 299 301 302 302 303 302 299 297 296 296 296 296 296 295
212 213 214 220 198 157 170 164 148 195 215 136 103 116 141 76 88 101 105 107 125 136 117 102 106 111 110 111 112 110 107 107 109 110 112 114 113 113 116 117 118 119 117 116 116 116 118 119 120 125 127 124 125 131 132 132 134 131 126 84 322 301 304 312 317 318 316 312 307 303 302 302 302 303 305 306 306 304 303 301 298 296 296 295 295 296 296
212 216 199 187 137 139 163 170 128 90 94 73 42 115 104 89 94 105 107 109 124 128 118 113 113 111 109 111 109 107 107 108 109 111 111 113 116 117 117 116 117 117 116 115 114 112 111 109 107 110 115 115 118 121 116 102 77 63 81 294 296 299 309 316 315 313 311 308 305 303 301 301 303 307 308 307 306 306 306 306 304 301 299 296 295 295 296
160 234 85 94 108 128 150 137 65 81 99 96 76 72 86 102 118 115 118 123 123 121 118 118 117 115 116 117 114 112 111 110 109 110 111 112 113 113 112 112 113 112 112 112 111 108 107 104 101 102 105 110 115 113 100 88 87 96 280 298 307 316 321 317 312 311 308 305 304 303 302 302 306 309 308 306 307 309 311 310 307 305 304 301 299 298 297
107 65 61 87 109 118 132 109 72 74 84 93 106 97 90 106 117 121 130 129 125 125 126 122 120 122 122 120 117 114 112 110 109 109 108 108 108 109 108 109 110 110 111 110 108 107 106 104 103 102 100 103 108 104 97 104 122 119 320 313 316 319 317 313 309 308 307 308 310 310 308 309 311 311 311 311 312 312 313 313 312 311 311 309 306 303 300
162 101 82 90 101 108 116 108 94 90 82 70 73 92 101 111 118 119 122 124 123 127 128 123 122 126 125 120 117 115 112 112 110 108 106 105 104 105 105 106 110 112 113 113 113 112 110 108 110 108 103 102 104 105 107 113 102 73 328 318 316 312 310 309 310 311 313 314 315 314 316 319 318 317 317 317 315 313 314 317 319 318 315 313 311 308 304
84 98 96 92 97 100 101 102 102 102 101 90 84 97 108 113 115 113 115 122 125 124 125 125 125 125 124 121 119 117 114 112 111 109 108 107 104 103 105 107 110 111 113 117 119 117 115 115 114 110 107 106 106 107 105 89 51 345 324 321 315 311 311 312 315 319 319 317 314 317 322 323 320 319 319 317 315 315 316 318 319 318 315 312 309 306 304
105 113 126 128 121 118 118 111 95 92 105 111 107 111 116 115 115 114 115 120 124 125 127 128 126 124 123 122 120 118 116 115 115 114 113 112 112 111 110 109 109 111 116 120 120 119 120 120 118 114 110 105 105 106 100 78 24 336 327 317 307 309 315 317 322 327 325 319 320 324 324 321 319 318 318 315 313 312 313 313 311 311 309 306 305 306 304
141 121 140 151 144 135 132 123 109 106 117 122 120 121 123 121 121 121 118 118 122 126 127 128 127 125 124 125 124 122 120 120 120 120 120 119 118 117 115 114 114 114 117 120 121 120 122 123 122 117 113 109 107 104 86 50 6 334 324 316 312 317 323 326 331 332 325 322 326 327 324 321 321 320 318 316 313 309 309 310 310 309 304 300 301 303 301
72 94 126 140 114 117 119 115 113 117 124 129 127 126 126 126 127 127 126 126 127 128 129 130 129 126 127 131 129 125 124 125 125 126 128 127 124 122 121 120 118 117 119 122 123 124 127 129 126 118 115 119 116 106 81 30 352 333 325 321 320 322 326 330 333 330 323 323 328 327 323 323 323 321 319 318 317 314 316 318 318 317 311 305 302 301 297
42 58 67 49 55 102 118 119 119 124 131 133 130 128 130 132 134 134 132 131 131 132 133 133 132 132 134 135 130 126 127 129 129 128 127 125 124 124 124 124 124 125 126 125 125 129 133 134 131 129 129 128 122 94 53 18 348 333 326 320 318 322 327 330 330 326 323 325 326 324 323 325 326 324 320 318 318 320 322 322 321 319 314 309 306 305 300
348 5 9 29 66 93 113 119 116 118 125 127 128 129 132 136 139 137 134 132 133 136 136 136 136 138 137 133 131 131 131 130 129 128 126 124 125 127 128 131 132 130 129 128 129 134 141 142 140 142 140 132 123 49 19 3 339 325 317 311 313 320 327 331 330 325 324 326 325 323 325 327 326 323 320 319 320 321 320 321 321 319 315 311 309 310 309
329 328 305 135 106 107 121 128 128 130 128 123 125 127 129 134 138 138 136 136 138 139 139 139 139 138 136 135 136 135 131 129 129 130 131 132 134 135 136 136 136 135 134 133 133 135 141 145 143 145 149 138 105 12 355 343 327 315 308 309 313 316 319 326 330 326 325 326 325 324 326 327 324 322 320 320 322 321 321 322 323 323 323 323 321 320 318
329 293 213 162 144 143 139 125 134 141 137 131 131 131 131 135 140 139 137 139 141 142 142 140 137 135 135 137 136 132 130 132 134 135 136 137 138 139 137 135 137 139 136 133 133 135 141 149 152 154 162 149 16 344 330 322 314 309 311 317 319 316 309 315 323 325 324 324 324 325 325 324 321 319 317 320 323 323 321 321 322 324 327 328 326 326 325
323 302 292 289 159 145 124 106 126 135 134 133 136 136 138 142 144 143 141 140 141 142 142 142 139 137 137 139 137 134 135 138 139 137 136 137 138 137 136 137 141 142 137 133 135 141 148 164 180 184 195 268 317 317 313 311 311 316 320 321 320 320 320 322 324 325 322 319 321 323 320 317 315 314 313 317 322 321 319 321 323 325 326 326 325 326 329
302 295 302 326 83 117 115 116 126 129 129 135 139 142 147 150 149 148 147 145 145 144 143 144 144 144 142 142 141 141 142 143 142 140 137 138 138 137 138 143 144 141 139 140 143 148 156 170 196 223 259 292 294 305 311 313 318 321 322 321 320 323 328 331 329 323 317 313 315 315 312 310 311 313 314 316 320 321 322 326 328 327 326 327 328 329 330
274 276 287 321 110 128 124 125 134 136 137 141 145 150 157 157 153 150 148 148 151 151 146 144 147 149 149 146 146 147 147 144 142 142 140 140 142 140 143 148 148 148 153 156 155 160 167 179 203 224 288 331 321 317 316 320 324 322 317 315 316 315 321 328 326 320 315 314 314 314 314 315 316 318 318 318 321 324 327 328 330 330 329 330 330 329 329
234 236 235 178 152 149 127 124 140 145 144 148 153 157 164 163 155 149 147 149 155 156 150 149 153 155 152 149 147 146 144 141 142 145 145 145 146 147 152 159 159 157 158 155 154 165 177 190 203 199 131 350 334 326 322 324 327 324 318 318 319 318 325 330 325 319 317 317 316 317 322 323 322 322 322 323 324 328 330 331 333 333 332 331 331 330 330
203 199 181 150 152 153 133 134 151 155 155 161 163 164 169 168 158 152 152 153 154 154 154 156 158 155 150 147 144 143 142 142 145 148 148 149 152 155 161 165 159 145 141 141 148 164 179 189 189 170 123 333 321 325 329 331 330 325 325 329 328 330 336 334 327 321 317 315 317 324 327 326 326 326 327 328 328 329 333 335 335 333 333 333 331 329 329
183 174 159 152 158 157 149 156 167 165 167 172 171 167 169 165 155 150 150 149 149 150 153 157 156 150 147 146 145 146 146 146 148 153 156 157 160 163 166 167 156 144 143 146 152 167 181 177 170 162 6 334 328 332 339 341 334 328 334 339 335 334 337 334 327 323 320 320 326 331 328 326 328 329 330 331 330 329 334 339 337 333 332 331 326 321 320
182 164 157 161 165 167 169 174 177 176 177 177 170 161 156 147 137 136 143 147 149 151 151 151 151 149 149 150 151 153 154 155 159 164 164 165 166 166 166 166 160 153 150 154 163 175 167 154 158 179 351 341 336 340 343 340 338 342 345 343 339 339 339 336 332 330 330 331 333 332 329 329 332 331 330 330 329 328 332 336 334 331 328 326 323 320 318
118 93 121 141 148 160 171 177 177 179 180 174 164 156 149 141 136 140 149 152 150 147 146 149 153 156 156 157 159 161 165 169 171 167 166 170 170 166 163 165 167 165 163 166 170 163 141 141 150 351 14 351 339 347 351 347 348 354 349 341 338 339 339 337 335 335 335 335 334 334 334 334 332 330 329 328 328 330 331 332 332 330 327 325 326 324 322
129 104 105 109 116 129 131 145 172 178 177 172 163 154 148 147 148 153 154 150 145 146 149 153 158 162 162 163 165 168 172 173 168 164 168 171 168 164 167 173 176 179 179 171 162 154 142 134 108 54 27 350 345 6 18 3 350 345 338 333 335 339 340 340 340 339 338 338 336 334 333 330 329 331 332 329 329 333 333 331 332 332 330 329 330 327 325
181 160 112 103 110 117 107 96 127 157 160 161 158 154 154 155 157 158 156 151 149 154 160 161 163 164 164 165 166 166 167 166 164 165 168 169 166 168 174 179 184 195 200 174 151 142 130 114 94 75 32 1 12 58 51 7 341 329 325 327 334 341 343 343 344 344 341 340 337 334 333 335 336 337 336 334 333 334 332 332 334 333 331 330 330 329 328
181 181 143 118 116 117 112 110 131 151 156 157 158 160 164 163 158 155 152 146 145 153 159 161 161 160 157 158 161 161 159 161 163 164 165 166 170 176 181 186 196 209 199 157 139 131 126 119 102 82 55 35 44 65 39 355 329 319 325 331 333 339 344 345 345 344 341 339 337 336 338 341 342 340 338 337 336 333 332 333 333 331 330 330 331 332 331
160 156 139 124 123 126 122 121 135 153 160 162 162 162 163 158 150 145 139 134 138 149 155 156 156 154 153 156 160 159 159 163 166 166 167 170 176 183 185 187 196 191 150 143 144 137 136 138 127 100 82 65 61 64 22 342 318 308 317 327 328 333 342 345 343 341 340 339 337 336 339 343 343 340 339 338 336 333 333 332 331 330 331 332 333 334 334
153 150 145 140 140 137 129 124 128 139 151 160 160 154 149 144 141 138 136 136 143 152 155 155 155 154 155 161 163 160 160 164 167 168 171 174 180 190 193 185 178 167 156 155 154 147 149 153 149 125 111 87 54 39 353 327 315 308 316 329 333 337 342 343 341 341 342 342 339 339 342 345 343 341 341 339 336 335 335 334 334 335 334 333 335 337 335
149 148 147 145 142 136 132 131 130 131 139 148 148 144 143 143 142 141 139 138 143 150 154 155 154 154 157 162 163 159 161 165 167 170 176 181 189 204 206 186 170 170 170 166 162 160 163 170 174 157 142 137 40 353 332 323 321 323 329 334 337 338 340 342 342 342 343 343 342 342 345 345 343 344 344 341 337 338 338 337 337 337 335 335 337 338 335
150 149 148 145 141 137 136 137 136 134 135 136 135 136 142 146 144 139 136 136 140 144 145 143 142 144 150 156 157 158 163 168 170 178 189 195 204 215 210 171 157 168 176 173 170 173 178 184 190 186 169 172 299 320 321 323 330 337 338 337 337 336 336 340 343 341 341 343 343 343 345 346 344 345 345 341 339 340 341 339 339 339 337 337 339 338 337
153 152 149 144 142 142 143 142 139 136 131 128 130 136 143 143 139 135 133 135 138 139 136 133 132 136 142 149 157 166 175 180 183 191 199 201 202 208 203 171 158 170 179 179 179 188 195 194 192 191 192 209 297 312 315 324 339 346 342 338 337 335 334 339 342 340 341 345 345 344 347 347 345 345 346 343 340 341 341 341 341 341 339 339 339 337 340
154 154 150 145 145 147 148 145 140 135 128 125 129 135 138 137 136 135 135 135 135 135 135 136 138 140 146 156 169 180 187 190 194 199 200 198 194 195 194 182 167 169 178 184 192 202 204 195 192 202 218 249 301 311 312 325 342 348 344 339 338 336 336 340 342 341 342 345 345 345 348 347 344 345 346 342 339 340 342 343 343 341 339 340 340 337 340
149 148 146 145 145 147 147 142 137 132 127 126 128 131 133 133 135 135 134 133 133 134 136 139 142 147 153 161 168 172 177 185 193 198 202 202 193 184 183 184 181 179 183 191 201 209 204 195 200 215 235 269 295 299 304 322 338 344 342 340 339 336 336 340 342 341 342 345 345 347 349 348 346 347 347 342 338 339 341 342 343 343 341 342 341 338 339
140 139 141 143 144 143 138 131 126 127 129 128 126 125 127 129 131 131 131 132 133 137 140 143 145 148 152 152 150 151 160 171 180 190 200 199 156 148 169 183 187 184 188 195 205 211 206 204 213 227 245 271 285 290 303 322 334 339 342 343 342 339 338 342 343 340 340 345 347 348 349 349 347 347 345 340 338 339 341 343 345 346 344 343 341 339 340
137 140 141 141 138 132 126 125 129 134 137 135 127 125 128 130 129 129 132 134 136 138 139 140 141 145 149 154 160 167 172 174 174 177 185 183 160 154 168 178 178 178 186 195 206 210 204 202 214 231 250 267 274 286 305 322 329 336 344 346 344 342 341 343 343 340 340 344 346 346 348 351 351 347 344 342 341 343 344 346 348 349 347 345 343 340 341
143 142 139 137 133 129 130 136 140 142 139 133 129 130 132 131 128 128 131 133 134 137 142 148 155 161 167 176 186 191 195 198 191 180 179 183 179 170 167 169 174 180 186 192 201 209 208 205 210 223 243 259 264 279 305 323 330 338 348 351 351 350 350 350 349 345 343 345 346 348 353 356 355 351 348 346 346 347 346 347 351 352 349 344 342 343 343
143 137 132 134 136 137 142 147 147 142 137 134 132 132 132 130 128 130 134 138 144 154 162 169 178 186 189 195 201 200 199 205 206 185 171 180 185 177 166 168 178 187 192 194 194 197 203 209 214 222 237 253 259 276 309 329 331 333 348 355 356 355 354 353 351 349 348 347 348 353 358 358 356 354 351 348 347 349 348 348 351 352 348 344 343 346 346
144 139 138 141 144 149 155 157 149 142 140 137 132 133 138 139 138 142 148 154 162 171 174 173 180 189 192 195 198 196 191 192 194 183 167 169 176 176 175 177 182 189 197 202 192 182 187 201 211 217 233 254 261 273 308 328 325 311 334 352 356 355 351 344 338 341 350 351 349 354 0 359 356 354 352 349 349 349 349 349 350 351 351 350 350 350 350
147 146 147 147 147 151 156 152 140 136 138 138 137 140 146 148 148 153 160 165 171 177 175 172 174 178 180 181 183 183 182 183 183 181 175 171 171 176 184 185 184 187 194 203 200 190 190 198 205 214 235 257 266 272 296 315 313 303 317 346 358 1 1 359 352 349 351 351 349 354 3 2 358 354 353 353 352 350 348 350 353 353 355 357 357 354 354
149 146 146 146 146 145 143 137 132 133 137 141 144 149 154 156 156 158 165 173 178 176 171 167 168 170 172 174 173 173 176 179 178 179 183 187 187 186 188 187 185 186 190 196 202 206 206 208 216 228 241 260 277 285 289 291 289 287 295 316 340 351 9 18 11 0 352 346 348 357 5 5 1 0 0 357 355 353 352 354 356 357 357 359 358 355 355
Height
734 728 728 729 734 736 733 733 733 731 733 738 744 746 741 742 759 764 749 750 762 752 736 738 739 737 740 741 740 742 744 747 750 754 759 762 765 767 769 771 772 774 776 777 779 782 784 786 789 791 793 795 796 798 800 801 802 803 804 805 806 807 807 808 808 808 808 808 808 808 808 807 807 806 805 804 803 803 802 802 801 800 799 799 798 797 795
734 729 728 729 734 737 735 734 730 728 731 735 738 739 735 738 746 747 749 756 753 739 734 735 732 731 734 736 738 741 744 748 751 755 759 761 763 765 766 768 769 771 773 774 777 780 782 784 787 789 791 793 794 797 798 799 801 802 803 804 805 805 806 806 807 807 807 807 807 806 806 805 805 804 803 802 802 801 800 800 799 798 797 797 796 795 793
737 729 727 730 735 738 738 736 731 728 731 734 735 735 733 738 744 743 749 756 748 736 734 735 733 733 735 738 742 743 745 748 751 755 758 760 761 763 763 765 767 768 770 772 775 777 779 781 784 786 789 791 793 795 796 798 799 800 802 802 803 804 805 805 805 805 805 805 805 805 804 803 803 802 802 801 800 799 798 798 797 796 795 794 793 792 791
742 730 730 734 733 735 739 739 735 733 733 733 733 731 731 737 746 752 756 755 747 737 735 737 737 736 738 742 743 744 746 747 750 754 756 757 758 759 760 762 764 766 767 769 771 773 776 779 781 784 787 789 791 793 795 797 798 799 800 801 802 803 803 804 804 804 804 803 803 803 802 802 801 800 800 799 798 798 796 796 795 794 793 792 790 789 788
740 729 731 732 734 747 750 738 730 730 729 727 728 729 729 729 739 756 760 750 739 734 734 738 740 737 738 740 740 742 745 746 748 751 751 754 755 755 757 759 761 763 764 765 768 771 773 776 779 781 784 787 789 791 793 795 796 798 799 799 800 801 801 803 802 802 802 802 801 801 800 800 800 799 798 797 796 796 795 794 793 791 790 789 788 787 786
739 731 729 734 747 761 751 725 716 720 721 723 729 733 731 726 730 740 742 735 732 733 732 734 736 734 734 734 734 736 739 743 747 749 748 751 752 752 755 757 758 760 761 764 767 769 771 774 776 780 783 785 787 789 791 793 795 796 797 798 799 799 800 801 801 801 801 800 800 799 799 798 798 797 796 796 795 794 793 792 791 789 788 786 785 784 783
736 732 736 754 764 753 732 718 714 716 715 715 722 727 724 721 725 728 730 731 731 731 730 729 730 731 729 730 731 733 735 739 743 747 749 749 750 752 754 755 756 758 760 762 765 767 770 773 775 778 781 783 786 788 789 792 793 794 796 797 797 798 799 799 800 799 799 798 798 798 797 797 796 795 795 794 793 792 791 790 788 787 785 784 782 781 780
738 741 748 759 756 734 723 723 719 718 720 719 724 733 728 721 723 726 728 730 728 728 731 730 730 731 730 731 733 732 733 736 739 744 747 748 749 751 752 753 755 757 759 761 764 766 769 771 774 776 779 781 784 786 788 790 792 793 795 795 795 796 797 798 798 798 797 797 797 796 796 795 794 794 793 792 791 790 789 788 786 784 783 782 780 779 778
737 742 744 743 743 738 733 729 720 717 721 719 724 738 736 722 720 725 727 729 727 727 731 732 731 731 733 738 740 736 734 736 737 739 742 745 748 749 750 752 755 757 760 761 763 766 768 770 773 775 778 781 783 785 787 789 791 792 793 794 794 795 796 796 796 796 796 796 795 795 794 793 793 792 791 790 789 788 787 786 784 782 781 779 778 776 775
730 735 742 745 753 753 738 725 716 710 711 709 712 731 739 727 722 726 726 727 728 727 730 733 732 735 742 748 745 739 738 738 737 739 741 743 746 748 750 753 755 757 760 761 763 766 768 770 773 774 777 780 782 785 787 788 790 792 792 793 794 794 795 795 795 795 795 795 794 794 793 792 791 791 790 789 788 787 785 784 782 780 778 776 775 773 772
729 734 745 749 754 749 731 719 714 710 710 706 710 737 750 733 722 722 721 724 727 726 728 732 733 740 752 755 748 741 740 739 738 740 742 742 745 749 751 754 756 758 760 762 764 766 767 770 772 774 777 780 782 784 786 788 790 791 791 792 793 794 794 794 794 794 794 794 793 793 792 791 790 789 788 787 786 785 783 782 779 778 776 774 772 771 769
733 733 738 736 738 739 727 717 714 710 707 706 724 757 759 732 718 718 717 721 725 723 726 731 734 741 748 749 746 740 737 737 738 739 741 743 746 749 752 755 757 759 761 763 764 766 768 770 772 774 777 779 782 784 785 787 789 790 791 792 792 793 793 793 793 793 793 793 792 791 791 790 789 788 787 785 784 782 781 779 778 776 774 772 771 769 767
732 735 737 733 733 734 725 717 714 709 710 722 744 760 748 725 718 718 715 718 722 723 726 730 734 738 738 737 739 737 735 738 740 740 743 745 747 750 753 756 758 759 761 763 764 767 769 771 773 775 777 779 781 784 785 787 788 789 791 792 792 792 792 792 793 792 792 792 791 790 790 789 787 786 785 783 782 781 779 778 776 774 773 771 769 767 765
727 730 735 738 740 731 720 718 715 711 724 742 745 738 729 723 721 718 717 719 721 723 727 730 733 737 735 734 736 736 737 740 742 742 745 747 749 753 755 757 759 760 762 764 766 768 771 773 774 776 777 779 782 783 785 787 788 790 790 791 791 791 792 792 792 791 791 791 790 789 788 787 786 784 783 782 780 779 777 776 774 772 771 768 767 765 763
731 735 739 748 749 730 715 719 721 720 731 738 730 722 724 723 719 719 721 721 720 724 729 731 733 736 736 737 739 738 739 741 743 745 747 749 752 754 756 758 760 761 763 765 768 770 772 774 776 777 779 781 782 784 786 787 788 789 790 790 791 791 791 791 791 790 790 789 788 788 787 785 784 783 781 780 779 777 776 774 772 770 768 766 764 762 760
736 742 740 741 737 721 712 719 725 723 723 722 719 720 723 722 720 721 723 724 722 724 728 732 735 737 739 741 741 741 743 744 745 748 749 751 753 755 756 759 761 762 765 767 769 772 774 776 778 779 780 782 783 785 786 787 788 789 789 790 790 790 790 790 789 789 789 788 787 786 785 784 783 781 780 779 777 776 774 772 770 768 766 764 762 759 758
728 731 727 724 722 716 713 715 718 718 717 715 716 718 719 721 722 722 724 727 726 724 728 733 736 738 740 742 742 744 746 746 748 750 751 753 755 756 758 761 763 765 767 769 771 774 776 778 780 781 782 783 784 785 787 787 788 788 789 790 789 789 789 789 788 788 787 786 785 784 783 782 780 779 778 777 775 774 772 771 769 767 764 762 760 758 756
721 722 720 718 718 717 714 713 714 715 715 714 714 716 719 722 722 721 723 726 726 726 730 733 736 739 740 742 744 745 746 748 750 752 753 755 757 759 761 764 766 767 769 771 774 776 777 780 781 782 783 784 785 786 787 787 788 789 789 789 789 789 789 788 787 787 786 785 784 782 781 780 778 777 776 774 773 772 770 769 767 765 763 761 759 757 754
727 729 724 717 718 719 716 715 716 716 717 716 715 717 720 721 721 722 723 725 726 728 730 733 737 740 739 742 745 746 748 751 752 753 756 758 760 762 764 766 768 769 771 773 775 777 779 781 781 783 784 785 785 787 787 787 788 788 788 788 788 787 787 787 786 786 785 784 782 781 779 778 776 775 774 773 772 770 769 767 766 764 762 760 758 756 753
728 731 724 717 717 717 715 716 717 717 719 720 718 717 719 720 721 723 724 725 728 730 732 734 737 739 741 744 747 748 751 753 755 757 759 762 763 766 768 769 771 772 773 775 777 779 780 782 783 784 785 785 786 787 787 788 788 788 788 788 787 787 786 786 785 785 784 782 781 779 778 777 776 774 773 772 771 769 768 767 765 763 762 760 757 755 753
728 728 724 720 722 722 719 717 717 717 718 720 720 720 720 721 724 725 726 727 728 730 733 735 737 741 744 746 747 751 754 756 758 760 762 765 767 769 770 772 773 774 775 777 778 780 781 782 783 784 785 786 786 787 787 788 788 788 788 787 787 786 785 784 784 783 782 781 779 778 777 776 774 773 772 771 770 768 767 766 765 764 762 759 757 754 751
733 729 724 723 727 728 723 717 717 718 718 719 722 723 723 725 727 728 729 730 730 731 734 736 739 744 747 747 750 754 756 759 761 763 765 767 769 770 772 774 775 776 777 778 779 781 782 783 784 785 785 786 787 787 787 788 788 788 788 787 786 785 784 783 783 783 782 780 779 778 777 775 773 771 770 770 769 767 765 764 763 763 761 759 756 754 751
731 725 720 719 721 724 721 717 717 717 717 719 723 724 725 727 728 728 730 733 735 736 737 738 741 745 748 750 752 755 758 761 764 765 767 769 770 772 774 775 776 777 778 779 780 781 782 783 784 785 785 786 787 787 787 788 788 787 787 786 786 785 784 783 783 783 782 780 778 778 776 774 773 771 769 768 766 764 763 762 761 760 758 756 755 753 751
724 720 718 717 718 720 719 717 717 717 716 719 722 724 725 727 728 729 731 734 736 738 740 741 743 747 749 751 753 756 760 763 765 767 769 770 771 773 774 775 777 778 779 780 781 782 783 784 784 785 786 786 786 787 787 787 787 787 787 786 786 785 784 784 783 783 781 779 778 777 775 773 773 772 770 767 764 762 761 759 758 757 755 753 751 749 748
723 720 718 717 717 718 716 715 717 718 717 719 722 724 726 727 728 730 732 735 737 739 741 743 746 748 750 752 755 758 761 763 766 768 770 771 773 774 775 776 778 778 779 781 781 782 783 784 784 785 786 786 786 787 787 787 787 786 786 786 786 785 785 784 783 782 780 779 778 777 775 774 773 772 769 766 763 760 758 757 755 754 752 750 748 746 745
721 719 718 718 718 717 717 718 721 721 720 720 723 726 727 728 730 731 734 737 738 739 742 744 746 749 752 754 757 760 762 765 768 769 770 772 774 774 775 777 778 779 780 781 781 782 783 784 784 785 785 785 786 786 786 786 786 786 786 786 785 785 784 783 783 781 779 778 778 776 775 774 773 771 769 766 763 760 758 755 752 750 748 746 744 743 742
721 719 720 723 724 722 720 721 722 721 721 722 724 727 729 730 732 733 735 738 740 742 744 746 748 751 755 756 758 761 764 766 769 770 771 773 773 774 776 777 778 779 780 781 782 783 784 784 784 785 785 785 786 786 786 786 786 786 786 785 784 783 783 783 782 780 779 778 777 776 775 774 772 770 768 764 762 760 757 755 752 748 745 744 742 740 739
724 722 721 725 726 723 720 719 719 720 722 723 725 727 729 731 733 735 738 741 742 744 746 748 751 753 756 758 760 763 765 767 769 770 772 773 774 775 776 777 778 779 780 781 782 783 784 784 784 784 785 786 786 786 786 786 786 785 784 784 783 782 782 781 781 780 779 778 776 775 774 773 771 768 766 763 760 758 756 754 751 748 745 742 739 737 736
727 724 722 721 720 718 718 720 721 723 724 725 726 728 730 732 735 738 740 742 744 746 748 750 753 755 757 759 761 764 766 768 769 771 772 774 775 776 777 778 779 780 780 782 783 783 784 784 784 784 785 786 786 786 786 785 785 784 784 783 783 782 781 781 781 779 778 777 776 774 773 771 769 767 765 762 760 758 756 753 750 747 744 741 738 735 733
728 727 724 721 718 718 720 723 725 726 726 727 728 729 730 732 736 739 740 742 744 746 749 751 754 755 757 760 762 764 766 768 770 771 773 774 775 777 778 778 779 780 780 781 782 783 783 784 784 784 785 785 785 785 785 784 784 783 783 783 782 782 781 781 780 779 777 776 774 773 771 770 768 766 764 762 759 758 755 752 748 746 743 741 738 735 732
730 728 725 722 721 721 722 724 726 727 727 728 730 732 732 733 737 740 742 743 745 747 749 752 754 756 758 760 763 765 767 769 770 772 774 775 776 778 778 779 779 779 780 781 782 783 783 783 784 785 785 785 785 785 784 784 783 783 782 782 781 781 781 780 779 778 777 775 773 772 770 769 767 765 763 761 759 757 755 751 748 746 743 741 738 735 732
730 727 724 724 723 722 724 725 727 728 728 729 731 733 733 734 737 740 742 744 745 747 750 752 754 757 759 761 764 766 767 769 771 772 774 775 777 778 779 779 779 780 780 781 782 782 783 783 784 784 785 785 785 784 783 783 783 782 782 781 781 780 780 779 778 777 776 774 772 771 769 768 766 765 763 761 759 757 754 751 748 746 743 740 737 735 732
727 727 726 726 725 725 726 727 727 728 728 729 730 732 732 733 736 739 741 743 745 748 750 752 755 757 759 762 764 766 768 770 771 772 774 775 776 777 779 779 780 780 781 781 782 782 783 783 784 784 784 784 784 783 783 783 783 782 782 781 780 780 779 778 778 776 774 773 772 771 770 768 766 764 763 761 759 756 754 751 748 746 743 740 737 734 731
720 721 721 721 721 723 725 725 726 727 727 727 729 731 733 734 737 739 742 743 745 748 750 753 755 757 759 762 764 766 768 769 770 772 773 774 776 777 778 779 780 780 781 781 782 782 783 783 784 784 784 784 783 783 783 783 782 782 782 781 781 780 779 778 777 775 774 773 772 770 769 768 766 764 763 760 758 756 753 751 748 745 742 739 736 733 730
715 716 716 715 716 717 719 720 722 724 726 727 729 731 733 736 738 740 742 743 745 748 750 753 755 757 759 761 763 765 767 768 769 771 772 774 775 776 777 779 780 780 780 781 782 782 782 783 784 784 783 783 783 783 783 783 782 782 782 781 780 779 778 777 776 775 774 773 772 770 769 768 766 764 762 760 758 755 753 750 747 745 741 738 735 732 729
715 716 717 717 717 717 717 718 720 721 723 726 728 730 733 736 738 740 742 743 745 748 751 753 754 756 758 760 762 764 766 767 769 770 772 773 775 776 777 778 779 779 780 780 781 781 782 783 783 783 783 783 783 783 783 783 782 782 782 781 780 779 778 777 776 775 774 773 772 770 769 767 765 763 761 759 757 755 752 750 747 744 741 738 735 732 728
715 716 717 717 717 718 719 719 720 721 723 725 727 729 732 734 737 739 741 742 745 748 750 751 753 755 758 760 762 764 765 767 769 770 772 773 774 776 777 777 778 779 779 779 780 781 782 782 783 783 783 783 783 783 783 783 782 782 781 780 779 779 778 776 775 775 774 772 771 770 768 766 765 763 761 759 757 754 752 750 747 744 742 738 735 732 729
715 716 717 718 718 719 720 721 722 723 724 726 728 730 732 733 735 738 740 742 745 747 749 751 753 755 757 760 762 764 765 767 768 770 771 773 774 775 776 777 777 777 778 778 780 781 782 782 783 783 783 783 783 782 782 782 782 781 781 780 779 778 777 776 775 774 773 772 771 770 768 766 764 762 760 758 756 754 752 750 747 745 742 739 736 733 729
715 716 717 718 719 720 721 722 723 724 724 726 728 730 732 734 735 737 740 742 745 747 749 751 753 755 758 760 761 763 765 767 768 770 771 772 774 775 775 776 777 777 778 779 780 781 782 782 783 783 783 783 782 782 782 782 782 781 780 780 779 778 777 776 775 774 773 772 771 769 768 766 764 762 760 758 756 754 752 750 748 745 743 740 737 734 730
715 716 717 718 719 720 721 722 724 725 726 727 729 730 732 734 736 738 740 743 745 747 749 751 753 755 757 759 761 763 765 767 768 769 771 772 773 774 774 775 777 778 778 779 780 780 781 782 782 783 783 783 782 782 782 782 781 781 780 779 778 777 776 776 774 773 772 771 770 769 767 766 764 763 761 759 757 754 752 750 748 746 743 740 738 735 731
714 715 716 718 719 720 721 723 725 726 727 729 730 731 733 735 736 739 741 743 745 748 749 751 752 755 757 759 761 763 765 766 768 769 770 771 772 773 773 774 776 777 777 778 779 780 781 781 782 782 782 782 782 782 782 781 781 780 779 778 778 777 776 775 774 773 772 771 770 768 767 766 764 763 761 759 757 755 752 750 748 746 744 741 738 736 732
714 715 716 718 719 720 722 724 725 727 728 730 731 732 734 736 738 740 741 743 746 748 749 751 753 755 758 760 762 763 765 766 767 769 770 771 771 771 772 773 775 776 777 778 779 779 780 781 781 781 781 782 782 782 781 781 780 779 778 778 777 776 776 775 774 773 772 771 770 768 767 766 764 763 761 759 757 755 753 751 749 746 744 742 739 737 733
714 715 716 718 719 720 722 724 725 727 729 730 732 734 736 737 739 740 742 744 746 748 749 752 754 756 758 760 762 763 765 766 767 768 769 770 771 772 772 773 774 775 776 777 778 779 779 780 780 780 781 781 781 781 781 780 779 778 777 777 776 776 775 774 773 773 772 771 770 769 767 766 765 763 761 760 758 756 754 752 750 747 745 742 740 738 734
714 715 716 718 719 720 722 724 725 727 729 731 733 735 737 738 739 741 743 745 747 748 750 753 755 756 759 760 761 763 764 765 766 767 768 768 770 771 772 773 773 774 775 776 777 777 778 778 779 779 780 780 780 780 780 779 778 777 777 776 776 775 775 774 773 773 772 771 770 769 768 766 765 764 762 760 759 757 755 753 751 749 746 744 741 739 735
714 715 717 718 719 721 723 724 725 727 730 732 734 736 738 739 741 742 743 745 747 749 751 753 755 757 759 760 761 762 763 764 765 766 766 767 768 769 771 772 773 773 774 776 776 776 777 778 778 778 779 779 779 779 779 778 777 777 776 776 775 774 774 773 773 772 771 771 770 769 768 766 765 764 762 761 759 757 756 754 752 750 748 745 742 740 737
715 716 718 719 720 722 724 725 727 729 731 733 735 738 739 740 741 743 744 746 748 750 752 754 755 757 758 760 761 762 763 764 765 766 766 766 767 768 770 771 772 772 774 775 775 776 776 776 777 778 778 778 778 779 778 777 777 776 776 775 775 774 774 773 773 772 771 771 770 769 768 767 766 764 763 762 760 758 757 755 753 751 749 747 744 741 738
715 717 718 720 721 723 725 727 728 730 731 733 735 738 739 741 742 744 745 748 750 751 753 754 756 757 759 760 761 762 762 763 764 766 767 767 768 769 769 770 771 772 773 774 774 775 775 776 776 777 777 777 777 778 777 776 776 775 775 775 774 774 773 773 772 772 771 770 770 769 768 767 766 765 763 762 760 759 757 755 754 752 750 748 745 742 739
716 717 719 721 722 724 726 728 729 730 732 733 735 738 740 742 743 745 747 749 750 752 753 755 756 758 759 760 761 762 762 762 763 764 766 767 767 768 768 769 770 771 772 773 774 774 775 775 775 776 776 776 777 776 776 775 775 775 774 774 774 773 773 773 772 771 771 770 769 769 768 767 766 765 763 762 761 759 758 756 755 753 751 749 746 743 740
718 718 720 722 724 725 727 728 729 731 733 734 736 739 741 742 744 746 748 749 751 752 754 755 756 758 759 760 760 762 762 763 763 764 765 766 766 767 768 769 770 771 772 772 773 773 774 774 775 775 775 775 775 775 775 775 775 774 774 774 774 773 773 773 772 771 771 770 769 768 768 767 766 765 764 762 761 760 758 757 756 754 752 750 747 745 742
718 720 721 723 724 726 727 728 729 731 734 735 737 740 741 742 744 746 748 749 751 752 753 754 755 756 757 758 759 760 761 762 763 764 764 765 766 767 767 769 770 771 771 772 772 772 773 773 773 774 774 774 774 774 774 774 774 774 773 773 773 773 773 772 772 771 771 770 769 768 768 767 766 765 764 763 762 760 759 758 756 755 753 751 749 746 744
719 720 722 723 725 727 728 729 730 732 734 736 738 741 742 742 744 746 747 749 750 751 751 752 753 755 756 757 758 759 760 762 763 763 764 765 766 767 768 768 769 770 771 771 771 771 771 772 772 773 773 773 773 773 773 773 773 773 773 773 773 772 772 772 771 771 770 770 769 768 767 767 766 765 764 763 762 761 759 758 757 755 754 752 750 748 746
720 721 722 724 726 728 729 731 733 734 736 737 739 741 742 742 744 745 747 748 749 750 750 752 753 754 755 756 757 758 760 761 761 763 764 765 766 766 767 767 768 769 769 770 770 770 770 771 771 772 772 772 772 771 771 772 772 772 772 772 772 772 772 771 771 770 770 769 769 768 767 767 766 765 764 763 762 761 760 759 758 756 755 753 752 750 747